Date,TemperatureHighF,TemperatureAvgF,TemperatureLowF,DewpointHighF,DewpointAvgF,DewpointLowF,HumidityHigh,HumidityAvg,HumidityLow,PressureMaxIn,PressureMinIn,WindSpeedMaxMPH,WindSpeedAvgMPH,GustSpeedMaxMPH,PrecipitationSumIn
2013-1-1,49,42,35,44,38,32,97,89,71,30.31,30.18,8,2,10,0.01
2013-1-2,52,42,34,44,36,28,90,77,62,30.19,30.06,7,2,10,0.00
2013-1-3,54,46,38,47,41,32,97,80,65,30.27,30.01,19,8,29,0.16
2013-1-4,50,46,42,48,44,41,96,93,85,30.29,30.12,8,2,12,0.01
2013-1-5,50,46,41,46,43,40,97,92,82,30.18,30.08,12,4,19,0.10
2013-1-6,48,45,40,46,43,40,98,93,87,30.23,30.14,12,4,19,0.07
2013-1-7,49,48,45,48,47,43,99,96,91,30.27,30.11,16,9,24,0.09
2013-1-8,50,48,47,49,47,46,98,96,91,30.26,29.99,17,11,26,0.01
2013-1-9,49,44,37,47,40,33,96,86,73,30.04,29.84,20,10,29,0.52
2013-1-10,45,40,34,40,36,33,97,86,71,30.20,30.02,23,9,28,0.24
2013-1-11,45,40,34,41,36,32,94,87,71,30.29,30.16,17,3,22,0.08
2013-1-12,34,33,31,32,31,28,94,92,87,30.36,30.25,8,4,13,0.00
2013-1-13,41,35,29,32,29,27,90,81,69,30.42,30.34,8,5,13,0.00
2013-1-14,45,38,33,37,32,28,89,80,70,30.51,30.48,12,5,16,0.00
2013-1-15,34,33,32,31,30,29,89,89,89,30.52,30.51,8,5,9,0.00
2013-1-19,40,37,32,40,36,32,99,99,99,30.28,30.21,9,2,13,0.01
2013-1-20,46,36,29,42,35,28,100,96,86,30.25,30.15,7,2,13,0.01
2013-1-21,55,42,32,43,36,30,98,80,48,30.18,30.05,6,2,8,0.00
2013-1-22,58,47,40,45,38,30,87,71,38,30.06,29.88,11,4,20,0.00
2013-1-23,49,44,39,47,42,38,98,92,75,30.16,29.83,14,3,18,0.76
2013-1-24,50,43,36,48,42,35,99,96,91,30.16,30.08,12,5,16,0.06
2013-1-25,49,46,42,48,46,42,98,97,89,30.14,30.01,15,9,24,0.22
2013-1-26,48,44,39,44,40,38,98,86,76,30.15,30.00,13,7,18,0.15
2013-1-27,46,41,37,44,40,36,97,94,88,30.22,30.13,13,5,19,0.58
2013-1-28,47,45,43,44,42,40,96,90,83,30.37,30.17,15,8,20,0.02
2013-1-29,47,44,40,45,42,39,98,95,89,30.54,30.37,11,4,20,0.09
2013-1-30,48,43,38,46,42,38,98,97,94,30.55,30.44,7,3,15,0.00
2013-1-31,52,44,40,47,42,39,98,93,77,30.44,30.30,12,5,16,0.02
2013-2-1,51,44,37,47,42,36,96,92,76,30.31,30.13,10,4,15,0.00
2013-2-2,50,45,39,46,42,36,96,91,78,30.34,30.18,11,3,14,0.00
2013-2-3,50,46,42,45,43,40,96,89,80,30.34,30.21,6,1,9,0.00
2013-2-4,48,43,37,45,41,36,98,93,86,30.22,30.00,17,6,24,0.01
2013-2-5,50,47,45,47,45,41,96,91,84,30.12,29.95,14,9,25,0.09
2013-2-6,50,46,38,46,43,36,96,90,75,30.13,29.89,18,10,30,0.57
2013-2-7,42,38,36,41,37,34,97,95,91,30.10,29.98,13,3,17,0.52
2013-2-8,46,40,34,41,37,33,97,89,79,30.27,30.10,17,7,25,0.01
2013-2-9,48,41,36,42,38,34,95,88,65,30.30,30.25,13,4,16,0.00
2013-2-10,49,44,40,42,40,37,97,86,72,30.30,30.25,11,5,15,0.00
2013-2-11,49,44,41,44,39,36,96,84,66,30.42,30.28,13,7,18,0.00
2013-2-12,48,46,43,48,45,42,98,97,95,30.52,30.42,9,4,11,0.04
2013-2-13,49,46,43,47,45,42,98,96,92,30.51,30.45,10,4,12,0.00
2013-2-14,50,45,39,46,44,38,98,94,87,30.50,30.36,19,6,24,0.01
2013-2-15,54,47,43,49,45,42,96,91,74,30.36,30.20,7,3,10,0.00
2013-2-16,48,45,42,45,43,40,97,93,86,30.33,30.25,13,5,18,0.01
2013-2-17,45,42,38,41,38,35,95,87,77,30.30,30.06,16,6,21,0.02
2013-2-18,46,40,35,41,38,33,94,90,81,30.07,29.72,13,5,19,0.06
2013-2-19,45,40,35,40,37,34,97,91,81,30.03,29.63,13,5,19,0.61
2013-2-20,46,41,35,42,38,33,96,91,76,30.16,30.02,12,4,16,0.06
2013-2-21,47,43,38,43,39,35,94,86,76,30.29,30.16,11,5,17,0.02
2013-2-22,46,44,42,45,42,37,97,91,77,30.26,30.03,20,12,34,0.44
2013-2-23,46,42,37,40,37,34,92,83,72,30.46,30.21,18,7,23,0.08
2013-2-24,47,41,33,42,37,31,94,85,68,30.45,30.17,13,5,20,0.00
2013-2-25,47,44,35,44,39,33,96,83,71,30.41,30.16,16,6,23,0.26
2013-2-26,47,40,32,40,36,31,95,86,65,30.40,30.26,6,3,22,0.01
2013-2-27,50,46,40,48,42,37,97,88,69,30.30,30.22,14,6,24,0.13
2013-2-28,50,49,48,49,48,48,99,98,95,30.49,30.23,16,10,26,0.25
2013-3-1,52,48,45,51,47,44,99,98,94,30.49,30.32,8,3,26,0.00
2013-3-2,48,47,44,48,46,43,99,98,96,30.32,30.22,17,4,20,0.01
2013-3-3,46,43,38,43,39,33,96,85,70,30.27,30.14,22,10,29,0.00
2013-3-4,49,42,34,44,38,32,90,85,73,30.14,29.87,18,7,26,0.00
2013-3-5,49,43,40,43,40,36,96,91,66,29.87,29.59,23,4,25,1.10
2013-3-6,47,42,39,44,40,38,96,93,86,29.96,29.55,15,7,22,0.41
2013-3-7,48,42,35,43,39,34,96,89,76,30.01,29.96,8,3,11,0.01
2013-3-8,46,41,32,43,38,31,97,92,87,30.22,29.99,16,7,21,0.01
2013-3-9,49,44,39,45,41,37,95,91,83,30.49,30.22,16,6,18,0.00
2013-3-10,49,43,36,46,42,36,98,93,84,30.47,30.40,11,5,13,0.00
2013-3-11,48,46,45,48,46,44,99,98,97,30.42,30.24,10,5,13,0.01
2013-3-12,49,46,43,49,45,43,100,99,97,30.25,30.20,7,2,12,0.01
2013-3-13,46,45,43,46,44,43,99,99,98,30.24,30.13,5,2,7,0.00
2013-3-14,53,47,43,48,45,43,99,92,81,30.23,30.08,14,7,21,0.00
2013-3-15,51,48,45,50,47,45,98,95,91,30.25,30.21,6,2,9,0.00
2013-3-16,48,46,43,47,45,40,98,96,88,30.25,30.15,16,6,22,0.15
2013-3-17,46,43,37,41,37,33,92,79,69,30.33,30.25,13,6,22,0.00
2013-3-18,48,42,34,44,38,32,94,86,67,30.28,30.06,20,7,25,0.00
2013-3-19,53,48,44,48,44,39,96,85,61,30.06,29.67,22,9,35,0.65
2013-3-20,51,47,42,48,43,36,98,88,74,30.25,29.64,26,14,44,0.32
2013-3-21,47,42,37,41,37,34,92,80,69,30.38,30.25,13,5,38,0.04
2013-3-22,45,41,36,39,36,32,93,82,71,30.39,30.34,15,6,22,0.06
2013-3-23,46,39,32,38,34,30,94,83,68,30.37,30.21,16,7,20,0.00
2013-3-24,47,42,37,41,38,34,91,83,75,30.22,30.05,10,4,13,0.00
2013-3-25,48,43,36,44,40,34,93,89,85,30.06,29.97,7,3,9,0.01
2013-3-26,51,47,43,47,44,42,94,90,83,30.00,29.91,6,3,8,0.00
2013-3-27,52,48,46,50,47,43,97,94,89,29.97,29.89,11,5,15,0.05
2013-3-28,52,49,47,49,48,46,97,95,89,30.12,29.97,5,2,9,0.01
2013-3-29,57,50,47,53,48,46,97,94,87,30.15,30.09,13,5,17,0.01
2013-3-30,61,52,46,55,49,45,97,89,73,30.09,29.97,14,5,18,0.01
2013-3-31,52,50,49,50,49,48,98,95,91,30.05,29.97,8,3,11,0.01
2013-4-1,51,48,47,50,48,46,99,98,96,30.20,30.04,8,4,10,0.00
2013-4-2,48,47,45,48,46,45,99,98,96,30.23,30.16,9,4,12,0.01
2013-4-3,48,46,44,47,45,43,99,98,97,30.16,29.90,6,2,9,0.02
2013-4-4,54,50,48,53,50,47,99,98,96,29.93,29.70,20,10,30,1.03
2013-4-5,52,50,49,50,49,48,98,96,93,30.01,29.88,21,14,30,0.48
2013-4-6,51,50,49,50,49,48,98,96,91,30.06,29.75,24,12,39,0.27
2013-4-7,50,46,41,50,44,39,97,91,82,30.04,29.77,26,12,47,0.54
2013-4-8,50,46,40,46,42,38,96,87,80,30.30,30.04,15,6,47,0.14
2013-4-9,52,46,40,48,43,38,94,90,84,30.33,30.27,10,4,19,0.00
2013-4-10,51,47,42,50,46,40,99,96,92,30.35,30.26,12,5,17,0.02
2013-4-11,49,45,40,45,42,38,96,90,80,30.36,30.15,21,9,27,0.01
2013-4-12,50,45,38,46,43,37,97,92,82,30.15,29.98,15,5,19,0.09
2013-4-13,48,45,39,43,39,34,90,79,69,30.17,30.05,12,7,19,0.02
2013-4-14,47,42,36,42,38,32,92,87,81,30.15,29.98,10,4,19,0.02
2013-4-15,47,42,38,41,39,36,95,88,78,30.21,29.98,13,5,17,0.43
2013-4-16,50,45,40,44,41,37,96,87,79,30.41,30.21,13,5,15,0.03
2013-4-17,50,47,43,45,42,40,90,86,78,30.50,30.41,14,5,17,0.00
2013-4-18,50,47,44,47,44,42,96,90,83,30.48,30.38,13,6,17,0.00
2013-4-19,50,48,46,49,47,45,99,98,96,30.39,30.30,12,4,17,0.06
2013-4-20,49,47,46,47,46,43,99,94,88,30.37,30.28,15,8,18,0.04
2013-4-21,50,47,44,47,44,41,94,89,83,30.31,30.24,10,6,13,0.00
2013-4-22,53,49,45,47,45,42,94,87,76,30.28,30.19,23,10,28,0.00
2013-4-23,51,48,44,45,41,35,91,77,61,30.23,30.11,23,11,29,0.00
2013-4-24,67,50,40,46,42,34,95,76,32,30.15,29.92,21,7,25,0.00
2013-4-25,50,46,43,48,44,39,97,91,80,30.16,29.96,16,6,19,0.00
2013-4-26,47,45,44,46,44,43,99,98,96,30.30,30.16,9,4,11,0.00
2013-4-27,49,46,42,47,44,42,99,96,90,30.33,30.25,11,5,13,0.00
2013-4-28,51,48,47,49,47,45,96,94,90,30.30,30.19,11,5,14,0.00
2013-4-29,49,48,44,48,45,38,99,90,80,30.22,30.16,18,7,22,0.04
2013-4-30,49,45,39,42,38,34,84,79,57,30.37,30.22,22,11,28,0.00
2013-5-1,50,46,38,44,41,35,91,82,63,30.39,30.31,23,10,30,0.00
2013-5-2,55,49,45,46,44,41,91,81,67,30.32,30.23,20,10,27,0.00
2013-5-3,50,48,43,47,45,41,94,89,85,30.27,30.05,23,10,27,0.00
2013-5-4,66,52,44,50,45,38,95,77,37,30.06,29.70,19,7,26,0.00
2013-5-5,77,59,47,49,43,36,90,61,29,29.83,29.62,19,10,26,0.00
2013-5-6,55,52,48,51,48,45,96,88,79,29.96,29.83,10,4,15,0.00
2013-5-7,52,50,48,50,48,47,98,95,91,30.07,29.95,12,6,16,0.00
2013-5-8,54,51,49,50,48,46,93,90,85,30.18,30.06,7,4,10,0.00
2013-5-9,50,49,48,48,47,46,96,94,91,30.22,30.13,16,7,21,0.00
2013-5-10,52,49,47,49,47,46,96,93,88,30.25,30.21,7,2,10,0.00
2013-5-11,57,52,47,53,50,46,96,91,81,30.25,30.08,5,2,8,0.00
2013-5-12,58,54,51,55,52,49,97,91,84,30.16,30.08,10,6,16,0.00
2013-5-13,55,52,48,53,51,47,99,97,91,30.24,30.08,15,6,18,0.00
2013-5-14,54,50,46,50,48,45,98,92,84,30.22,30.14,15,7,18,0.01
2013-5-15,57,51,46,50,47,44,94,87,71,30.14,30.01,12,4,18,0.00
2013-5-16,55,52,50,53,50,49,97,95,91,30.02,29.97,11,5,15,0.11
2013-5-17,56,52,48,52,49,46,97,91,81,30.13,30.00,9,3,13,0.03
2013-5-18,54,51,48,50,48,46,96,91,83,30.34,30.11,13,7,19,0.02
2013-5-19,54,52,50,50,48,46,96,88,78,30.42,30.31,22,12,27,0.01
2013-5-20,52,49,45,49,46,44,95,92,88,30.32,30.00,16,7,19,0.00
2013-5-21,50,47,44,47,44,38,96,87,70,30.11,29.86,27,10,34,0.25
2013-5-22,47,44,42,45,42,39,96,92,82,30.10,30.05,14,7,21,1.13
2013-5-23,52,48,43,49,46,41,96,93,85,30.09,30.02,10,6,16,0.19
2013-5-24,54,50,47,49,46,43,95,85,79,30.13,30.06,9,4,16,0.00
2013-5-25,54,49,41,50,46,39,97,91,84,30.10,29.96,11,5,16,0.15
2013-5-26,55,52,49,52,50,48,98,93,87,30.09,29.97,13,9,21,0.02
2013-5-27,55,52,50,54,51,49,98,96,92,29.99,29.78,20,12,35,0.36
2013-5-28,56,52,49,54,51,48,98,94,87,29.99,29.74,19,8,28,0.12
2013-5-29,54,52,50,52,50,48,98,93,88,30.11,29.73,20,8,29,0.05
2013-5-30,58,52,48,52,49,46,96,89,79,30.25,30.10,7,3,29,0.00
2013-5-31,54,51,44,51,48,43,95,90,84,30.29,30.23,18,9,23,0.01
2013-6-1,56,52,48,53,50,47,97,94,88,30.25,30.08,10,5,12,0.00
2013-6-2,54,52,50,52,50,48,99,95,91,30.08,30.04,23,12,30,0.01
2013-6-3,53,50,48,50,48,47,95,92,89,30.07,30.00,23,12,29,0.00
2013-6-4,52,49,46,50,48,45,97,95,92,30.03,29.99,20,10,24,0.00
2013-6-5,52,50,48,52,50,48,99,98,96,30.09,30.02,19,9,24,0.00
2013-6-6,52,50,47,50,49,47,99,96,92,30.10,30.04,18,9,25,0.01
2013-6-7,54,51,48,52,50,47,99,95,86,30.13,30.08,18,8,22,0.00
2013-6-8,52,50,47,51,48,46,99,93,88,30.13,30.05,23,11,30,0.00
2013-6-9,52,50,48,49,47,46,95,91,86,30.06,29.99,24,12,30,0.00
2013-6-10,52,49,47,50,46,44,94,90,86,30.05,29.95,17,9,21,0.00
2013-6-11,53,50,47,50,48,45,95,92,88,30.18,30.05,10,3,14,0.00
2013-6-12,53,49,44,51,47,43,97,94,89,30.23,30.15,9,3,11,0.00
2013-6-13,56,51,47,53,49,46,97,94,87,30.31,30.22,7,3,10,0.03
2013-6-14,53,50,44,51,48,43,97,94,90,30.30,29.98,17,8,20,0.01
2013-6-15,55,52,49,53,51,47,98,95,88,30.07,29.94,6,2,8,0.00
2013-6-16,56,51,45,52,49,43,96,92,85,30.15,30.06,10,4,16,0.00
2013-6-17,57,51,45,54,50,44,98,96,87,30.13,30.04,14,6,20,0.04
2013-6-18,58,53,47,54,51,46,98,93,86,30.05,29.99,15,7,20,0.28
2013-6-19,59,55,50,55,52,49,98,91,81,30.14,29.99,9,5,13,0.02
2013-6-20,59,55,51,54,52,49,93,89,82,30.14,30.08,10,4,13,0.00
2013-6-21,58,54,48,55,52,47,97,91,87,30.15,30.10,15,7,19,0.00
2013-6-22,59,54,49,55,52,48,98,93,83,30.10,29.88,8,5,12,0.01
2013-6-23,61,56,53,59,56,52,99,97,92,29.88,29.66,16,7,27,0.27
2013-6-24,60,55,52,55,53,51,99,94,81,29.75,29.67,18,10,26,0.10
2013-6-25,60,57,54,58,55,53,99,95,84,29.85,29.68,17,11,26,0.28
2013-6-26,63,59,56,60,57,55,98,95,89,30.00,29.84,13,7,26,0.06
2013-6-27,62,58,55,60,57,54,98,95,91,30.16,29.99,14,5,19,0.00
2013-6-28,66,60,54,62,58,53,99,95,88,30.14,30.08,5,2,7,0.01
2013-6-29,65,61,56,61,58,55,98,92,83,30.11,29.97,13,6,18,0.00
2013-6-30,63,59,56,62,58,55,99,97,94,29.99,29.93,11,4,13,0.01
2013-7-1,60,58,56,59,57,55,99,97,95,30.06,29.94,16,8,19,0.00
2013-7-2,59,56,54,57,55,53,100,96,91,30.10,30.03,21,9,24,0.00
2013-7-3,58,56,53,56,54,52,97,93,89,30.12,30.08,20,9,25,0.00
2013-7-4,57,54,52,53,52,49,95,91,84,30.12,30.05,17,9,21,0.00
2013-7-5,55,53,51,52,50,48,94,91,85,30.06,29.95,19,10,23,0.00
2013-7-6,57,53,49,53,50,48,94,91,88,29.97,29.90,18,8,22,0.00
2013-7-7,56,53,51,53,51,49,96,93,88,30.00,29.92,15,8,18,0.00
2013-7-8,56,53,50,53,51,48,95,91,87,30.04,29.99,18,10,22,0.00
2013-7-9,54,51,48,53,51,48,99,98,95,30.10,30.02,18,9,24,0.00
2013-7-10,54,52,50,52,50,48,99,94,88,30.10,30.00,20,10,25,0.00
2013-7-11,54,51,48,50,48,46,95,91,86,30.05,30.00,17,7,20,0.00
2013-7-12,53,50,47,51,49,46,97,94,91,30.09,30.02,12,6,15,0.00
2013-7-13,53,50,46,50,48,45,98,93,86,30.09,30.03,23,10,28,0.01
2013-7-14,52,50,46,50,48,46,98,96,94,30.07,30.00,21,10,25,0.00
2013-7-15,53,50,47,51,49,46,98,96,92,30.01,29.83,21,10,26,0.00
2013-7-16,52,49,47,51,48,47,99,97,96,30.06,29.82,10,5,17,0.00
2013-7-17,55,52,50,52,50,48,97,94,90,30.18,30.06,9,4,12,0.00
2013-7-18,54,51,48,51,49,46,98,94,89,30.18,30.13,17,8,21,0.00
2013-7-19,54,52,50,51,50,48,96,94,89,30.15,30.08,19,10,25,0.00
2013-7-20,55,52,49,52,50,48,97,93,88,30.10,29.98,22,10,26,0.00
2013-7-21,54,51,47,52,50,47,99,97,92,29.99,29.90,21,11,27,0.00
2013-7-22,53,50,48,51,50,47,100,97,93,30.00,29.95,20,11,26,0.00
2013-7-23,50,48,45,50,47,45,100,99,98,30.07,29.98,18,9,23,0.00
2013-7-24,50,48,46,49,48,46,99,98,96,30.06,30.01,20,11,25,0.00
2013-7-25,52,48,46,50,48,46,100,97,92,30.05,30.01,21,11,26,0.00
2013-7-26,53,50,47,50,48,46,99,95,91,30.16,30.05,21,11,27,0.00
2013-7-27,54,51,48,51,49,47,98,95,91,30.16,30.05,21,11,25,0.00
2013-7-28,56,51,49,53,50,47,97,94,86,30.07,29.97,15,8,19,0.00
2013-7-29,54,50,46,52,49,46,99,97,93,30.08,29.96,13,6,15,0.01
2013-7-30,55,52,50,53,51,49,98,96,92,30.15,30.08,7,3,9,0.00
2013-7-31,56,53,51,56,53,50,98,97,96,30.15,30.10,4,1,9,0.00
2013-8-1,58,55,52,56,54,51,100,97,93,30.16,30.09,6,2,9,0.01
2013-8-2,56,53,50,55,52,49,99,97,93,30.14,30.07,15,6,19,0.00
2013-8-3,54,50,48,52,50,47,100,98,95,30.08,29.99,15,8,19,0.01
2013-8-4,54,51,49,53,51,49,100,99,98,30.02,29.98,17,8,21,0.00
2013-8-5,52,50,49,52,50,48,100,98,95,30.03,29.96,18,8,23,0.00
2013-8-6,53,49,47,52,49,47,99,98,96,30.04,29.96,7,3,11,0.00
2013-8-7,55,50,47,55,50,47,100,99,95,30.10,30.01,9,4,11,0.05
2013-8-8,53,52,51,53,52,50,100,99,98,30.10,29.97,10,4,13,0.01
2013-8-9,55,52,50,55,52,50,100,100,98,30.01,29.91,14,5,18,0.06
2013-8-10,56,53,50,55,53,50,100,100,98,30.07,29.98,5,2,10,0.00
2013-8-11,57,54,52,55,53,51,99,96,94,30.07,30.03,9,3,11,0.00
2013-8-12,55,53,48,55,52,48,100,98,96,30.08,30.04,10,4,13,0.01
2013-8-13,59,53,48,56,52,47,99,95,90,30.08,29.97,11,3,12,0.01
2013-8-14,64,57,50,61,54,50,98,92,77,30.01,29.93,13,5,19,0.00
2013-8-15,63,59,54,62,58,54,99,97,92,29.99,29.92,6,3,9,0.00
2013-8-16,62,56,53,60,56,53,100,97,92,30.06,29.96,4,2,9,0.00
2013-8-17,64,57,54,61,56,53,100,96,88,30.10,30.04,10,4,13,0.00
2013-8-18,60,56,52,58,55,52,100,97,91,30.10,30.03,17,6,21,0.01
2013-8-19,59,55,52,57,54,52,100,98,87,30.10,30.03,18,9,22,0.01
2013-8-20,56,54,50,54,51,49,98,93,88,30.08,29.93,23,10,31,0.00
2013-8-21,55,51,48,54,50,47,98,95,92,29.95,29.88,15,6,20,0.00
2013-8-22,55,52,49,54,51,48,99,98,96,29.97,29.92,8,3,11,0.00
2013-8-23,60,54,51,57,53,51,100,97,90,29.97,29.91,7,2,9,0.00
2013-8-24,58,53,50,57,52,50,99,97,93,29.92,29.88,10,3,12,0.01
2013-8-25,55,52,48,55,52,48,100,99,98,29.95,29.89,5,2,6,0.03
2013-8-26,65,55,46,58,52,46,100,91,68,29.95,29.92,16,6,25,0.01
2013-8-27,66,59,56,60,56,53,94,90,78,29.94,29.83,13,5,18,0.00
2013-8-28,63,59,55,61,57,54,97,92,85,29.89,29.81,12,5,17,0.01
2013-8-29,65,60,57,63,60,57,100,97,90,30.08,29.81,16,8,28,0.30
2013-8-30,61,58,55,61,58,54,100,99,96,30.11,30.03,7,3,19,0.02
2013-8-31,57,55,52,57,54,52,100,100,97,30.03,29.91,10,5,13,0.01
2013-9-1,66,59,52,62,57,51,100,94,76,29.93,29.83,14,6,18,0.01
2013-9-2,64,60,56,61,58,53,100,95,88,29.93,29.86,12,6,17,0.06
2013-9-3,64,60,54,60,57,52,96,90,82,30.01,29.92,12,4,19,0.00
2013-9-4,62,59,56,59,57,55,99,95,88,30.06,29.98,7,3,10,0.00
2013-9-5,62,58,56,60,58,56,100,97,92,30.14,30.00,6,2,8,0.22
2013-9-6,63,60,57,62,59,57,99,96,90,30.17,30.06,13,4,16,0.04
2013-9-7,61,58,54,59,57,53,97,95,91,30.06,29.93,16,8,21,0.00
2013-9-8,61,57,54,60,56,54,100,98,93,30.01,29.93,19,8,24,0.00
2013-9-9,56,54,52,55,53,51,100,99,97,29.97,29.86,21,8,27,0.00
2013-9-10,57,52,50,55,51,50,100,98,92,29.86,29.72,18,6,22,0.01
2013-9-11,59,56,51,57,55,51,100,96,90,29.99,29.84,12,5,17,0.00
2013-9-12,60,57,55,59,56,54,99,97,93,30.00,29.96,5,2,8,0.00
2013-9-13,58,56,54,57,55,54,99,98,95,29.99,29.85,10,4,12,0.01
2013-9-14,57,54,53,56,54,52,100,99,96,29.86,29.79,7,3,9,0.01
2013-9-15,58,56,54,56,55,54,100,98,91,29.92,29.76,10,4,15,0.01
2013-9-16,60,57,54,59,55,53,99,93,86,29.98,29.87,7,2,9,0.00
2013-9-17,61,56,53,58,55,53,100,96,86,30.05,29.86,15,4,19,0.09
2013-9-18,58,54,51,56,53,50,99,96,90,30.08,29.95,12,4,14,0.01
2013-9-19,62,54,47,58,52,46,100,94,80,29.95,29.79,8,3,11,0.01
2013-9-20,59,55,50,58,53,48,99,95,85,29.79,29.66,17,3,25,0.31
2013-9-21,60,56,52,57,54,52,100,95,88,29.85,29.66,11,4,15,0.74
2013-9-22,60,56,54,56,55,53,97,94,82,29.92,29.75,22,11,38,0.19
2013-9-23,62,58,55,58,56,54,98,93,83,30.02,29.92,8,4,12,0.00
2013-9-24,58,55,51,55,53,48,97,93,85,30.00,29.92,15,6,21,0.13
2013-9-25,56,52,47,52,48,45,97,89,79,30.06,29.91,9,4,11,0.28
2013-9-26,59,51,44,56,49,43,98,92,87,30.19,30.05,8,2,9,0.00
2013-9-27,57,53,46,56,51,45,98,94,87,30.19,30.01,10,5,17,0.05
2013-9-28,60,56,52,58,56,51,99,97,91,30.01,29.63,25,16,39,0.91
2013-9-29,58,56,53,58,55,52,100,97,92,29.79,29.57,28,16,43,2.33
2013-9-30,58,56,53,55,53,49,96,90,86,30.04,29.77,11,8,18,0.07
2013-10-1,58,53,46,53,50,44,95,90,82,30.19,30.02,12,4,18,0.12
2013-10-2,57,50,42,52,47,41,95,90,78,30.21,30.12,10,4,14,0.02
2013-10-3,56,49,42,50,46,41,98,90,77,30.35,30.20,17,6,20,0.02
2013-10-4,59,51,43,53,48,42,94,87,65,30.35,30.24,17,6,21,0.00
2013-10-5,66,56,48,54,46,38,90,70,41,30.24,30.08,9,3,11,0.00
2013-10-6,64,55,47,54,47,36,92,75,39,30.08,30.00,16,5,19,0.00
2013-10-7,58,54,48,54,52,47,98,91,80,30.18,30.03,8,3,12,0.09
2013-10-8,54,50,46,52,48,45,96,94,88,30.18,30.01,12,2,18,0.08
2013-10-9,54,49,41,50,46,40,97,92,84,30.02,29.96,17,6,21,0.03
2013-10-10,57,51,46,52,48,44,94,90,75,30.09,29.95,17,5,20,0.00
2013-10-11,54,51,48,49,47,45,93,87,79,30.13,30.09,10,4,14,0.00
2013-10-12,54,49,46,51,47,44,96,92,88,30.12,30.06,11,3,14,0.11
2013-10-13,52,48,43,50,46,42,97,93,88,30.23,30.12,17,6,21,0.01
2013-10-24,49,48,47,49,48,47,100,100,100,30.11,30.01,5,2,8,0.01
2013-10-25,50,49,48,50,49,48,100,100,99,30.20,30.11,7,2,9,0.00
2013-10-26,49,48,46,49,48,46,100,98,93,30.20,30.16,18,8,24,0.01
2013-10-27,50,48,44,50,47,43,99,95,90,30.16,29.83,10,4,16,0.02
2013-10-28,51,46,41,48,44,40,100,92,75,29.84,29.74,12,4,15,0.02
2013-10-29,49,43,38,45,40,36,96,90,82,30.06,29.84,6,2,7,0.00
2013-10-30,51,42,34,48,40,33,98,92,85,30.19,30.05,5,1,7,0.00
2013-10-31,57,50,45,53,46,41,99,90,61,30.23,30.18,5,1,7,0.00
2013-11-1,55,49,46,53,49,45,100,98,92,30.21,29.96,13,4,22,0.01
2013-11-2,52,50,46,50,48,46,100,93,85,30.19,29.88,16,6,24,0.25
2013-11-3,50,46,40,46,44,39,97,92,87,30.23,30.17,8,2,22,0.05
2013-11-4,49,45,38,48,44,37,98,97,89,30.20,30.15,7,3,12,0.08
2013-11-5,53,51,49,51,50,48,99,97,95,30.25,30.12,13,8,20,0.06
2013-11-6,57,52,50,57,52,50,100,99,98,30.26,30.12,5,2,14,0.01
2013-11-7,52,50,44,52,49,44,100,99,98,30.18,30.01,20,6,25,0.48
2013-11-8,52,46,42,49,45,41,99,96,88,30.19,30.05,10,3,13,0.00
2013-11-9,53,46,41,47,44,40,98,91,70,30.06,29.96,6,2,9,0.01
2013-11-10,53,48,42,50,46,40,97,93,84,30.04,29.96,12,4,17,0.00
2013-11-11,60,52,44,54,46,41,99,83,50,30.04,29.95,14,4,23,0.01
2013-11-12,55,52,48,54,51,48,99,96,81,30.41,30.02,12,5,18,0.08
2013-11-13,52,49,44,51,48,43,100,98,95,30.41,30.25,14,6,18,0.00
2013-11-14,49,46,42,47,44,41,98,95,90,30.26,30.09,7,2,13,0.02
2013-11-15,49,45,41,46,44,40,99,95,90,30.10,29.78,11,4,18,0.09
2013-11-16,51,48,45,49,47,43,100,96,88,29.94,29.74,12,5,18,0.17
2013-11-17,54,48,45,49,46,42,96,90,80,30.05,29.94,9,4,18,0.02
2013-11-18,53,51,47,51,47,43,96,88,78,30.00,29.76,20,11,31,1.02
2013-11-19,52,49,44,52,48,37,99,96,78,29.95,29.77,20,10,33,0.77
2013-11-20,46,40,35,39,35,31,88,80,68,30.23,29.96,13,6,33,0.00
2013-11-21,48,38,31,36,28,24,83,66,41,30.41,30.23,16,6,19,0.00
2013-11-22,60,47,34,37,28,23,76,49,27,30.40,30.17,12,6,17,0.00
2013-11-23,69,55,45,43,29,22,58,38,21,30.17,29.96,14,6,21,0.00
2013-11-24,56,46,38,41,34,28,78,63,45,30.21,30.03,8,2,13,0.00
2013-11-25,52,44,36,44,36,28,90,75,52,30.29,30.21,7,2,9,0.00
2013-11-26,56,46,38,44,39,35,90,77,57,30.21,29.98,10,2,14,0.00
2013-11-27,59,47,39,45,40,35,94,77,51,29.98,29.85,5,2,7,0.00
2013-11-28,56,45,39,46,42,38,95,88,65,30.14,29.91,11,4,14,0.00
2013-11-29,48,44,36,47,42,35,97,95,90,30.32,30.14,13,5,16,0.01
2013-11-30,48,46,41,47,44,40,98,96,94,30.38,30.31,11,3,14,0.00
2013-12-1,51,49,47,50,49,46,100,99,94,30.36,30.16,15,9,22,0.05
2013-12-2,50,45,36,50,43,34,100,92,73,30.16,30.02,19,9,27,0.42
2013-12-3,44,37,32,41,35,30,98,94,86,30.17,30.07,10,3,15,0.15
2013-12-4,39,32,27,30,24,21,91,75,54,30.27,30.17,9,5,13,0.01
2013-12-5,39,32,25,29,25,22,90,77,59,30.23,30.08,7,3,13,0.00
2013-12-6,44,38,32,40,34,23,95,87,60,30.08,29.81,18,8,23,0.44
2013-12-7,32,28,23,29,22,19,90,80,59,30.33,29.99,10,6,16,0.00
2013-12-8,38,28,22,24,20,16,88,73,44,30.52,30.32,11,6,14,0.00
2013-12-9,42,32,26,30,23,16,79,67,52,30.52,30.45,9,6,14,0.00
2013-12-10,46,35,29,38,30,25,89,81,63,30.47,30.28,9,5,14,0.00
2013-12-11,50,40,33,44,35,30,93,84,61,30.29,30.15,6,2,10,0.00
2013-12-12,47,42,33,45,39,30,97,92,84,30.24,30.12,13,5,20,0.29
2013-12-13,49,44,39,48,44,39,99,98,95,30.39,30.23,4,1,7,0.02
2013-12-14,44,40,36,44,40,36,100,100,99,30.44,30.36,5,2,8,0.01
2013-12-15,50,42,36,48,41,36,100,98,91,30.44,30.38,7,3,9,0.01
2013-12-16,53,43,35,48,41,34,100,93,80,30.38,30.12,10,4,12,0.01
2013-12-17,45,41,35,43,39,33,97,95,90,30.20,30.12,13,4,17,0.00
2013-12-18,45,41,37,44,40,36,99,96,80,30.15,30.05,16,6,25,0.00
2013-12-19,41,37,32,36,33,30,91,85,72,30.26,30.13,14,5,17,0.01
2013-12-20,47,41,32,47,37,29,99,86,56,30.21,30.02,12,5,18,0.27
2013-12-21,47,46,43,47,45,43,100,100,99,30.27,30.07,7,3,12,0.06
2013-12-22,48,45,41,48,44,41,100,100,98,30.37,30.26,6,1,12,0.00
2013-12-23,49,45,41,49,45,41,100,100,99,30.49,30.34,7,1,9,0.04
2013-12-24,46,42,37,45,41,36,100,98,95,30.51,30.33,15,5,18,0.01
2013-12-25,46,40,34,44,39,33,98,95,88,30.37,30.26,12,5,17,0.01
2013-12-26,49,42,36,44,40,35,98,93,80,30.28,30.15,7,2,10,0.00
2013-12-27,50,42,39,46,41,37,99,95,85,30.33,30.13,10,2,13,0.01
2013-12-28,45,41,36,44,40,34,99,95,90,30.42,30.32,16,6,21,0.01
2013-12-29,49,41,34,43,36,32,93,85,72,30.36,30.15,10,5,13,0.00
2013-12-30,50,43,38,44,38,34,94,83,71,30.23,30.12,9,1,13,0.00
2013-12-31,47,42,39,45,41,38,98,96,92,30.30,30.21,6,2,8,0.00
2014-1-1,54,44,37,47,41,36,98,87,68,30.26,30.16,11,5,13,0.01
2014-1-2,50,44,40,46,42,38,96,90,81,30.18,30.10,6,1,8,0.00